Location: Risskov
(56.1972°N, 10.2480°E)
Time: 23:59:47
(UTC+00:00)

Cosmos 2219 Rocket - Pass Details

Date: 05 July 2020
Orbit: 827 x 847 km, 71.0° (Epoch: 03 August)

Event Time Altitude Azimuth Distance (km) Brightness Sun altitude
Rises 22:16:00 0° 224° (SW) 3,363 5.0 -9.8°
Reaches altitude 10° 22:18:27 10° 228° (SW) 2,435 4.3 -9.9°
Maximum altitude 22:24:00 65° 310° (NW) 919 2.7 -10.1°
Drops below altitude 10° 22:29:36 10° 32° (NNE) 2,460 5.3 -10.3°
Sets 22:32:06 0° 36° (NE) 3,400 6.0 -10.4°
